Tracking 29782 objects as of 13-Oct-2024
HD Live streaming from Space Station
objects crossing your sky now

STARLINK-5884

Track STARLINK-5884 now!
10-day predictions
STARLINK-5884 is classified as:


NORAD ID: 55957
Int'l Code: 2023-037AV
Perigee: 577.9 km
Apogee: 580.5 km
Inclination: 70.0 °
Period: 96.1 minutes
Semi major axis: 6950 km
RCS: Unknown
Launch date: March 17, 2023
Source: United States (US)
Launch site: AIR FORCE WESTERN TEST RANGE (AFWTR)
Your satellite tracking list
Your tracking list is empty




NASA's NSSDC Master Catalog

Two Line Element Set (TLE):
1 55957U 23037AV  24286.51929188  .00000348  00000-0  36913-4 0  9992
2 55957  70.0020 118.4111 0001867 267.7632  92.3313 14.98330476 87601
Source of the keplerian elements: AFSPC